Milwaukee, WI

8:59 AM CST on December 09, 2019 (GMT -0600)
Gen Mitchell International

Weather History for KMKE - September, 2019

Change the Weather History Date:

Sunday, September 8, 2019

  Actual Average Record
Temperature  
Mean Temperature 62 °F 66 °F  
Max Temperature 64 °F 74 °F 95 °F (1933)
Min Temperature 60 °F 58 °F 41 °F (1883)
Degree Days  
Heating Degree Days 2 2  
Month to date heating degree days 8 12  
Since 1 July heating degree days 10 38  
Cooling Degree Days 0 3  
Month to date cooling degree days 19 32  
Year to date cooling degree days 625 597  
Growing Degree Days 12 (Base 50)    
Moisture  
Dew Point 53 °F    
Average Humidity 71    
Maximum Humidity 84    
Minimum Humidity 65    
Precipitation  
Precipitation 0.01 in 0.10 in 4.32 in (1941)
Month to date precipitation 0.27 0.82  
Year to date precipitation 28.68 25.00  
Snow  
Snow 0.00 in 0.00 in 0.00 in (2018)
Month to date snowfall 0.0 0.0  
Since 1 July snowfall 0.0 0.0  
Since 1 September snowfall 0.0 0.0  
Snow Depth 0.00 in    
Sea Level Pressure  
Sea Level Pressure 30.13 in    
Wind  
Wind Speed 8 mph ()    
Max Wind Speed 14 mph    
Max Gust Speed 17 mph    
Visibility 10.0 miles    
Events      
T = Trace of Precipitation, MM = Missing Value Source: Averaged Metar Reports

Daily Weather History Graph

Daily Weather History Graph

Search for Another Location

Airport or City:

Astronomy

Sep. 08, 2019 Rise Set
Actual Time 6:23 AM CDT 7:14 PM CDT
Civil Twilight 5:54 AM CDT 7:43 PM CDT
Nautical Twilight 5:20 AM CDT 8:17 PM CDT
Astronomical Twilight 4:44 AM CDT 8:52 PM CDT
Moon 4:30 PM CDT (9/8) 12:55 AM CDT (9/8)
Length of Visible Light 13h 48m
Length of Day
12h 50m
Waxing Gibbous, 75% of the Moon is Illuminated
Sep 8
Waxing Gibbous
Sep 13
Full
Sep 21
Last Quarter
Sep 28
New
Oct 5
First Quarter

Hourly Weather History & Observations

Time (CDT) Temp. Dew Point Humidity Pressure Visibility Wind Dir Wind Speed Gust Speed Precip Events Conditions
12:52 AM 62.1 °F 57.0 °F 84% 30.06 in 10.0 mi NE 6.9 mph - N/A   Overcast
1:22 AM 63.0 °F 55.9 °F 78% 30.09 in 10.0 mi NE 8.1 mph - N/A   Overcast
1:52 AM 63.0 °F 55.9 °F 78% 30.07 in 10.0 mi ENE 9.2 mph - N/A   Overcast
2:52 AM 63.0 °F 54.0 °F 72% 30.08 in 10.0 mi NE 11.5 mph - N/A   Overcast
3:32 AM 62.1 °F 53.1 °F 72% 30.08 in 10.0 mi NE 10.4 mph - N/A   Overcast
3:52 AM 62.1 °F 53.1 °F 72% 30.08 in 10.0 mi NE 9.2 mph - N/A   Overcast
4:52 AM 62.1 °F 52.0 °F 70% 30.09 in 10.0 mi ENE 6.9 mph - N/A   Overcast
5:52 AM 62.1 °F 52.0 °F 70% 30.12 in 10.0 mi ENE 6.9 mph - N/A   Overcast
6:52 AM 62.1 °F 52.0 °F 70% 30.12 in 10.0 mi ENE 8.1 mph - N/A   Mostly Cloudy
7:52 AM 62.1 °F 52.0 °F 70% 30.13 in 10.0 mi ENE 10.4 mph - N/A   Overcast
8:52 AM 63.0 °F 53.1 °F 70% 30.14 in 10.0 mi ENE 10.4 mph - N/A   Overcast
9:52 AM 63.0 °F 53.1 °F 70% 30.14 in 10.0 mi ENE 10.4 mph - N/A   Overcast
10:52 AM 64.0 °F 53.1 °F 67% 30.15 in 10.0 mi ENE 11.5 mph - N/A   Mostly Cloudy
11:52 AM 64.0 °F 53.1 °F 67% 30.15 in 10.0 mi ENE 10.4 mph - N/A   Overcast
12:52 PM 64.9 °F 54.0 °F 68% 30.16 in 10.0 mi East 10.4 mph - N/A   Overcast
1:52 PM 64.0 °F 53.1 °F 67% 30.15 in 10.0 mi ENE 12.7 mph - N/A   Overcast
2:52 PM 63.0 °F 51.1 °F 65% 30.16 in 10.0 mi East 9.2 mph - N/A   Overcast
3:52 PM 63.0 °F 51.1 °F 65% 30.16 in 10.0 mi NE 10.4 mph - N/A   Overcast
4:52 PM 63.0 °F 51.1 °F 65% 30.14 in 10.0 mi NE 11.5 mph - N/A   Overcast
5:52 PM 62.1 °F 51.1 °F 67% 30.14 in 10.0 mi ENE 10.4 mph - N/A   Overcast
6:52 PM 62.1 °F 52.0 °F 70% 30.14 in 10.0 mi ENE 8.1 mph - N/A   Overcast
7:52 PM 62.1 °F 52.0 °F 70% 30.16 in 10.0 mi ENE 8.1 mph - N/A   Overcast
8:52 PM 62.1 °F 52.0 °F 70% 30.17 in 10.0 mi East 5.8 mph - N/A   Overcast
9:52 PM 62.1 °F 53.1 °F 72% 30.19 in 10.0 mi East 3.5 mph - N/A   Overcast
10:52 PM 62.1 °F 51.1 °F 67% 30.19 in 10.0 mi East 5.8 mph - N/A   Overcast
11:52 PM 61.0 °F 54.0 °F 78% 30.18 in 10.0 mi East 3.5 mph - 0.01 in   Overcast